sat.trackr.live / text

‹ back to catalog

HULIANWANG DIGUI-105

NORAD 66915 · 2025-285A

PAYLOAD ACTIVE UNKNOWN

§ Identity

Operator
Country
PRC
Launch date
2025-12-06
Launch site
WSC
Launch vehicle
Mass (kg)
RCS (m²)

External: N2YO · Heavens-Above · Gunter

§ Orbital elements

Epoch: 2026-05-24T22:41:34.344096Z

Period
108.33 min
Inclination
50.0046°
Eccentricity
0.0001097
Mean motion
13.29322160 rev/d
Perigee alt
1,148.5 km
Apogee alt
1,150.1 km
Semi-major
7,527.5 km
B*
4.6722e-5
RAAN
229.5752°
Arg perigee
209.2821°
Mean anomaly
150.7990°
Rev number
2,296

§ Raw data

HULIANWANG DIGUI-1051 66915U 25285A   26144.94553639 -.00000102  00000+0  46722-4 0  99982 66915  50.0046 229.5752 0001097 209.2821 150.7990 13.29322160 22966

JSON: /api/v1/satellites/66915 · /tle

For live sub-satellite position, see the globe view (requires WebGL).

§ Visibility from observer

Set your observer location to see the next 7 days of passes ≥ 10°. The values pass through the URL so the page stays shareable.

No JS? Fill the form by hand. The geolocation button needs JavaScript.